Location: Columbia
(38.9520°N, 92.3340°W)
Time: 03:28:17
(UTC-05:00)

Iridium 22 - Visible Passes

Search period start: 05 August 2015 00:00
Search period end: 15 August 2015 00:00
Orbit: 776 x 779 km, 86.4° (Epoch: 04 August)

Date Brightness Start Highest point End Pass type
(mag) Time Alt. Az. Time Alt. Az. Time Alt. Az.
05 Aug 5.7 03:49:27 10° N 03:54:39 68° E 03:57:12 30° SSE visible
05 Aug 7.4 05:32:31 10° NW 05:34:51 13° W 05:36:52 10° WSW visible
06 Aug 6.8 03:16:14 10° NNE 03:21:00 36° E 03:23:16 25° SE visible
06 Aug 6.7 04:57:25 10° NNW 05:01:34 24° W 05:03:42 18° WSW visible
07 Aug 7.6 02:43:30 10° NNE 02:47:11 20° ENE 02:49:21 16° ESE visible
07 Aug 5.9 04:23:16 10° NNW 04:28:13 44° W 04:29:47 34° SW visible
08 Aug 8.2 02:12:37 10° ENE 02:13:11 10° ENE 02:14:08 10° E visible
08 Aug 5.4 03:49:31 10° N 03:54:45 83° W 03:55:54 56° S visible
09 Aug 6.1 03:16:06 10° N 03:21:12 53° E 03:22:03 47° ESE visible
09 Aug 7.1 04:58:15 10° NW 05:01:31 16° W 05:02:29 15° W visible
10 Aug 7.0 02:43:02 10° NNE 02:47:29 28° E 02:48:12 27° E visible
10 Aug 6.4 04:23:40 10° NNW 04:28:13 30° W 04:28:39 30° W visible
11 Aug 7.8 02:10:39 10° NE 02:13:35 16° ENE 02:14:23 15° E visible
11 Aug 5.6 03:49:42 10° NNW 03:54:49 56° W 03:54:50 56° W visible
12 Aug 5.6 03:16:06 10° N 03:21:02 74° NE 03:21:02 74° NE visible
12 Aug 7.5 04:59:57 10° WNW 05:01:26 11° WNW 05:01:28 11° W visible
13 Aug 6.6 02:42:47 10° NNE 02:47:15 40° ENE 02:47:15 40° ENE visible
13 Aug 7.0 04:24:17 10° NNW 04:27:41 21° WNW 04:27:41 21° WNW visible
14 Aug 7.5 02:09:56 10° NNE 02:13:28 22° ENE 02:13:28 22° ENE visible
14 Aug 6.4 03:50:01 10° NNW 03:53:55 35° WNW 03:53:55 35° WNW visible
